Regional Weather Roundup
Issued by NWS

Home | Current Version | Previous Version | Graphics & Text | Print | Product List | Glossary On
Versions: 1 2 3 4 5 6 7 8 9 10 11 12 13 14 15 16 17 18 19 20 21 22 23 24 25 26 27 28 29 30 31 32 33 34 35 36 37 38 39 40 41 42 43 44 45 46 47 48 49 50
000
ASUS43 KLMK 301202
RWRKY
KENTUCKY REGIONAL WEATHER ROUNDUP
NATIONAL WEATHER SERVICE LOUISVILLE KY
800 AM EDT TUE JUN 30 2015

NOTE "FAIR" INDICATES FEW OR NO CLOUDS BELOW 12,000 FEET
WITH NO SIGNIFICANT WEATHER AND/OR OBSTRUCTIONS TO VISIBILITY.

KYZ001>023-026-027-061>063-070>075-301300-
WESTERN AND SOUTH CENTRAL KENTUCKY

CITY           SKY/WX    TMP DP  RH WIND       PRES   REMARKS
PADUCAH        SUNNY     69  67  93 CALM      29.90R FOG
HENDERSON      SUNNY     66  63  88 S3        29.88R
OWENSBORO      SUNNY     69  67  93 S5        29.89S
HOPKINSVILLE   SUNNY     69  67  94 SW6       29.91R
BOWLING GREEN  PTSUNNY   71  67  87 S6        29.92R
GLASGOW        NOT AVBL
$$

KYZ024-025-028>034-038-045-046-053-301300-
NORTH CENTRAL KENTUCKY

CITY           SKY/WX    TMP DP  RH WIND       PRES   REMARKS
LOUISVILLE/SDF CLOUDY    70  64  81 CALM      29.89R
LOUISVILLE/LOU PTSUNNY   68  64  87 S3        29.90R
FORT KNOX      PTSUNNY   66  65  95 S6        29.90R
$$

KYZ035>037-039>044-047>052-055>060-089>105-301300-
NORTHEAST KENTUCKY

CITY           SKY/WX    TMP DP  RH WIND       PRES   REMARKS
LEXINGTON      MOSUNNY   67  65  93 S9        29.93R
COVINGTON      MOSUNNY   66  64  93 S9        29.88R
FRANKFORT      MOSUNNY   68  65  90 SW6       29.91R
$$

KYZ054-064>069-076>088-106>120-301300-
SOUTHEAST KENTUCKY

CITY           SKY/WX    TMP DP  RH WIND       PRES   REMARKS
JACKSON        MOSUNNY   67  63  87 CALM      29.97R
LONDON         CLOUDY    68  62  81 S3        29.96S
SOMERSET       NOT AVBL
MIDDLESBORO    CLOUDY    66  65  94 CALM      29.99S
MONTICELLO     SUNNY     68  68 100 CALM      29.97S
$$



USA.gov is the U.S. government's official web portal to all federal, state and local government web resources and services.